This demonstration page uses our WeatherBlox Daily Observations layout. Learn more.

Left ArrowRight Arrow

36.17497, -115.13722

Hourly Observations for September 9, 2017

Temp ( °F °C ) Dew Point ( °F °C ) Humidity (%) Winds ( mph kmh ) Pressure ( in mb ) Visibility ( mi km ) Precip ( " mm )
12:53 am 00:53 Clear 69 20.6 63 17.2 81 81 ESE 6 9 30.05 1018 10 16 0.00 0.00
1:53 am 01:53 Clear 69 20.6 64 17.8 84 84 SSE 3 6 30.04 1017 10 16 0.00 0.00
2:53 am 02:53 Clear 69 20.6 63 17.2 81 81 S 5 7 30.04 1017 10 16 0.00 0.00
3:53 am 03:53 Clear 68 20 64 17.8 87 87 S 5 7 30.03 1017 10 16 0.00 0.00
4:53 am 04:53 Clear 68 20 64 17.8 87 87 SSE 5 7 30.04 1017 10 16 0.00 0.00
5:53 am 05:53 Mostly Clear 69 20.6 64 17.8 84 84 SE 3 6 30.05 1018 10 16 0.00 0.00
6:53 am 06:53 Mostly Cloudy 69 20.6 64 17.8 84 84 S 7 11 30.09 1019 10 16 0.00 0.00
7:53 am 07:53 Mostly Cloudy 71 21.7 63 17.2 76 76 W 7 11 30.11 1020 10 16 0.00 0.00
8:53 am 08:53 Mostly Cloudy 70 21.1 65 18.3 84 84 NE 6 9 30.10 1019 10 16 0.00 0.00
9:53 am 09:53 Sunny 73 22.8 63 17.2 71 71 Calm 30.12 1020 10 16 0.00 0.00
10:53 am 10:53 Partly Cloudy 76 24.4 62 16.7 62 62 SE 7 11 30.12 1020 10 16 0.00 0.00
11:53 am 11:53 Mostly Sunny 79 26.1 61 16.1 54 54 ENE 10 17 30.09 1019 10 16 0.00 0.00
12:53 pm 12:53 Mostly Sunny 80 26.7 59 15 49 49 E 9 15 30.08 1019 10 16 0.00 0.00
1:53 pm 13:53 Mostly Sunny 83 28.3 58 14.4 43 43 ESE 8 13 30.05 1018 10 16 0.00 0.00
2:53 pm 14:53 Sunny 83 28.3 58 14.4 43 43 SE 6 9 30.04 1017 10 16 0.00 0.00
3:53 pm 15:53 Sunny 83 28.3 57 13.9 41 41 SSW 5 7 30.02 1017 10 16 0.00 0.00
4:53 pm 16:53 Sunny 83 28.3 57 13.9 41 41 VRB 3 6 30.01 1016 10 16 0.00 0.00
5:53 pm 17:53 Sunny 82 27.8 60 15.6 47 47 SSE 9 15 30.01 1016 10 16 0.00 0.00
6:53 pm 18:53 Sunny 81 27.2 59 15 47 47 SSW 5 7 30.00 1016 10 16 0.00 0.00
7:53 pm 19:53 Clear 81 27.2 59 15 47 47 Calm 30.00 1016 10 16 0.00 0.00
8:53 pm 20:53 Clear 80 26.7 60 15.6 51 51 Calm 30.02 1017 10 16 0.00 0.00
9:53 pm 21:53 Clear 78 25.6 61 16.1 56 56 ESE 3 6 30.03 1017 10 16 0.00 0.00
10:53 pm 22:53 Clear 79 26.1 61 16.1 54 54 NNW 6 9 30.03 1017 10 16 0.00 0.00
11:53 pm 23:53 Clear 77 25 62 16.7 60 60 NNW 6 9 30.04 1017 10 16 0.00 0.00

Powered by AerisWeather